User: anonymous   Login
Location: Dunedin
(45.8670°S, 170.5000°E)
Time: 01:10:52
(UTC+13:00)
Language:

Cosmos 2263 Rocket - Orbit

View from above orbital plane
View from above orbital plane
View from above satellite
View from above satellite

Ground track
Ground track

The orbit data is extracted from the following two-line orbital elements,

1 22803U 93059B   19294.14439405 -.00000145  00000-0 -48575-4 0  9991
2 22803  70.9898 245.6845 0016649 169.8058 190.3407 14.16814350349525
Epoch (UTC): 21 October 2019 03:27:55
Eccentricity: 0.0016649
inclination: 70.9898°
perigee height: 824 km
apogee height: 848 km
right ascension of ascending node: 245.6845°
argument of perigee: 169.8058°
revolutions per day: 14.16814350
mean anomaly at epoch: 190.3407°
orbit number at epoch: 34952

The dashed part of the orbit path shows where the satellite is in the earth's shadow,  

DLR